When you browse on this site, cookies collect data to enhance your experience and personalize the content and advertising you see.
Visit our Privacy Policy to learn more. By continuing to use the site, you agree to this use of cookies and data.
  • In United Kingdom
  • List of Countries
  • For 7 days
  • Water Temperature
  • Weather Map
  • Weather Widgets
  • user-avatar
    Login

    Hourly Weather Plovdiv

    Today, 22 October, Tuesday

    Time Temperature Precipitation Wind Pressure Humidity
    00:00 +18°C° 0 mm 1 mps 743 mmHg 63%
    01:00 +18°C° 0 mm 1 mps 743 mmHg 65%
    02:00 +16°C° 0 mm 1 mps 743 mmHg 68%
    03:00 +16°C° 0 mm 1 mps 743 mmHg 70%
    04:00 +16°C° 0 mm 1 mps 743 mmHg 72%
    05:00 +16°C° 0 mm 1 mps 743 mmHg 74%
    06:00 +16°C° 0 mm 1 mps 743 mmHg 70%
    07:00 +18°C° 0 mm 1 mps 743 mmHg 67%
    08:00 +17°C° 0 mm 0 mps 744 mmHg 63%
    09:00 +21°C° 0 mm 1 mps 744 mmHg 55%
    10:00 +23°C° 0 mm 1 mps 744 mmHg 47%
    11:00 +26°C° 0 mm 1 mps 744 mmHg 39%
    12:00 +26°C° 0 mm 2 mps 744 mmHg 37%
    13:00 +27°C° 0 mm 2 mps 744 mmHg 34%
    14:00 +27°C° 0 mm 2 mps 743 mmHg 32%
    15:00 +26°C° 0 mm 2 mps 743 mmHg 35%
    16:00 +25°C° 0 mm 2 mps 743 mmHg 39%
    17:00 +23°C° 0 mm 1 mps 742 mmHg 42%
    18:00 +22°C° 0 mm 1 mps 743 mmHg 45%
    19:00 +21°C° 0 mm 1 mps 743 mmHg 48%
    20:00 +19°C° 0 mm 1 mps 743 mmHg 50%
    21:00 +19°C° 0 mm 1 mps 743 mmHg 54%
    22:00 +18°C° 0 mm 1 mps 743 mmHg 57%
    23:00 +16°C° 0 mm 1 mps 743 mmHg 60%

    Tomorrow, 23 October, Wednesday

    Time Temperature Precipitation Wind Pressure Humidity
    00:00 +16°C° 0 mm 1 mps 743 mmHg 63%
    01:00 +16°C° 0 mm 1 mps 743 mmHg 66%
    02:00 +15°C° 0 mm 1 mps 743 mmHg 69%
    03:00 +15°C° 0 mm 1 mps 743 mmHg 69%
    04:00 +14°C° 0 mm 1 mps 743 mmHg 70%
    05:00 +14°C° 0 mm 1 mps 743 mmHg 70%
    06:00 +15°C° 0 mm 1 mps 743 mmHg 65%
    07:00 +16°C° 0 mm 1 mps 743 mmHg 61%
    08:00 +18°C° 0 mm 1 mps 743 mmHg 56%
    09:00 +20°C° 0 mm 1 mps 743 mmHg 49%
    10:00 +23°C° 0 mm 1 mps 743 mmHg 42%
    11:00 +25°C° 0 mm 1 mps 743 mmHg 35%
    12:00 +26°C° 0 mm 1 mps 743 mmHg 33%
    13:00 +26°C° 0 mm 2 mps 742 mmHg 30%
    14:00 +27°C° 0 mm 2 mps 742 mmHg 28%
    15:00 +26°C° 0 mm 2 mps 742 mmHg 32%
    16:00 +24°C° 0 mm 1 mps 741 mmHg 35%
    17:00 +23°C° 0 mm 1 mps 741 mmHg 39%
    18:00 +21°C° 0 mm 1 mps 741 mmHg 41%
    19:00 +20°C° 0 mm 1 mps 741 mmHg 43%
    20:00 +18°C° 0 mm 1 mps 741 mmHg 45%
    21:00 +18°C° 0 mm 1 mps 742 mmHg 44%
    22:00 +16°C° 0 mm 1 mps 742 mmHg 42%
    23:00 +16°C° 0 mm 1 mps 742 mmHg 41%

    Day after tomorrow, 24 October, Thursday

    Time Temperature Precipitation Wind Pressure Humidity
    00:00 +16°C° 0 mm 1 mps 742 mmHg 42%
    01:00 +15°C° 0 mm 1 mps 741 mmHg 43%
    02:00 +15°C° 0 mm 1 mps 741 mmHg 43%
    03:00 +15°C° 0 mm 1 mps 741 mmHg 45%
    04:00 +15°C° 0 mm 1 mps 741 mmHg 46%
    05:00 +14°C° 0 mm 1 mps 741 mmHg 47%
    06:00 +15°C° 0 mm 1 mps 741 mmHg 46%
    07:00 +16°C° 0 mm 1 mps 741 mmHg 45%
    08:00 +16°C° 0 mm 0 mps 741 mmHg 43%
    09:00 +20°C° 0 mm 1 mps 741 mmHg 39%
    10:00 +23°C° 0 mm 1 mps 741 mmHg 34%
    11:00 +25°C° 0 mm 1 mps 741 mmHg 29%
    12:00 +25°C° 0 mm 1 mps 741 mmHg 28%
    13:00 +26°C° 0 mm 2 mps 740 mmHg 27%
    14:00 +27°C° 0 mm 2 mps 740 mmHg 26%
    15:00 +25°C° 0 mm 2 mps 740 mmHg 30%
    16:00 +23°C° 0 mm 1 mps 739 mmHg 34%
    17:00 +22°C° 0 mm 1 mps 739 mmHg 39%
    18:00 +21°C° 0 mm 1 mps 739 mmHg 41%
    19:00 +19°C° 0 mm 1 mps 739 mmHg 43%
    20:00 +18°C° 0 mm 1 mps 740 mmHg 45%
    21:00 +16°C° 0 mm 1 mps 740 mmHg 46%
    22:00 +16°C° 0 mm 1 mps 740 mmHg 46%
    23:00 +15°C° 0 mm 1 mps 740 mmHg 46%

    25 October, Friday

    Time Temperature Precipitation Wind Pressure Humidity
    00:00 +15°C° 0 mm 1 mps 740 mmHg 47%
    01:00 +15°C° 0 mm 1 mps 740 mmHg 48%
    02:00 +14°C° 0 mm 1 mps 740 mmHg 48%
    03:00 +14°C° 0 mm 1 mps 740 mmHg 50%
    04:00 +14°C° 0 mm 1 mps 740 mmHg 51%
    05:00 +13°C° 0 mm 1 mps 740 mmHg 53%
    06:00 +14°C° 0 mm 1 mps 740 mmHg 52%
    07:00 +15°C° 0 mm 1 mps 740 mmHg 50%
    08:00 +15°C° 0 mm 0 mps 741 mmHg 49%
    09:00 +19°C° 0 mm 1 mps 741 mmHg 43%
    10:00 +22°C° 0 mm 1 mps 741 mmHg 38%
    11:00 +24°C° 0 mm 1 mps 741 mmHg 33%
    12:00 +24°C° 0 mm 1 mps 741 mmHg 31%
    13:00 +25°C° 0 mm 2 mps 741 mmHg 29%
    14:00 +26°C° 0 mm 2 mps 741 mmHg 28%
    15:00 +24°C° 0 mm 2 mps 740 mmHg 31%
    16:00 +23°C° 0 mm 1 mps 740 mmHg 35%
    17:00 +21°C° 0 mm 1 mps 740 mmHg 39%
    18:00 +20°C° 0 mm 1 mps 740 mmHg 40%
    19:00 +19°C° 0 mm 1 mps 740 mmHg 40%
    20:00 +18°C° 0 mm 1 mps 741 mmHg 41%
    21:00 +16°C° 0 mm 1 mps 741 mmHg 42%
    22:00 +16°C° 0 mm 1 mps 741 mmHg 43%
    23:00 +15°C° 0 mm 1 mps 741 mmHg 43%

    26 October, Saturday

    Time Temperature Precipitation Wind Pressure Humidity
    00:00 +15°C° 0 mm 1 mps 741 mmHg 45%
    01:00 +15°C° 0 mm 1 mps 741 mmHg 47%
    02:00 +14°C° 0 mm 1 mps 741 mmHg 48%
    03:00 +14°C° 0 mm 1 mps 741 mmHg 50%
    04:00 +14°C° 0 mm 1 mps 741 mmHg 51%
    05:00 +13°C° 0 mm 1 mps 741 mmHg 53%
    06:00 +14°C° 0 mm 1 mps 741 mmHg 51%
    07:00 +15°C° 0 mm 1 mps 742 mmHg 49%
    08:00 +16°C° 0 mm 1 mps 742 mmHg 48%
    09:00 +19°C° 0 mm 1 mps 742 mmHg 42%
    10:00 +22°C° 0 mm 1 mps 742 mmHg 36%
    11:00 +24°C° 0 mm 1 mps 742 mmHg 30%
    12:00 +25°C° 0 mm 1 mps 742 mmHg 28%
    13:00 +25°C° 0 mm 2 mps 742 mmHg 27%
    14:00 +26°C° 0 mm 2 mps 741 mmHg 25%
    15:00 +24°C° 0 mm 2 mps 741 mmHg 29%
    16:00 +23°C° 0 mm 1 mps 741 mmHg 33%
    17:00 +21°C° 0 mm 1 mps 740 mmHg 37%
    18:00 +20°C° 0 mm 1 mps 740 mmHg 39%
    19:00 +19°C° 0 mm 1 mps 740 mmHg 40%
    20:00 +16°C° 0 mm 1 mps 741 mmHg 42%
    21:00 +16°C° 0 mm 1 mps 741 mmHg 42%
    22:00 +16°C° 0 mm 1 mps 741 mmHg 43%
    23:00 +15°C° 0 mm 1 mps 741 mmHg 43%

    27 October, Sunday

    Time Temperature Precipitation Wind Pressure Humidity
    00:00 +15°C° 0 mm 1 mps 741 mmHg 44%
    01:00 +15°C° 0 mm 1 mps 741 mmHg 45%
    02:00 +14°C° 0 mm 1 mps 741 mmHg 46%
    03:00 +14°C° 0 mm 1 mps 741 mmHg 46%
    04:00 +14°C° 0 mm 1 mps 741 mmHg 47%
    05:00 +14°C° 0 mm 1 mps 740 mmHg 48%
    06:00 +15°C° 0 mm 1 mps 740 mmHg 47%
    07:00 +15°C° 0 mm 1 mps 741 mmHg 45%
    08:00 +16°C° 0 mm 1 mps 741 mmHg 44%
    09:00 +20°C° 0 mm 1 mps 741 mmHg 38%
    10:00 +22°C° 0 mm 1 mps 741 mmHg 32%
    11:00 +25°C° 0 mm 1 mps 741 mmHg 26%
    12:00 +26°C° 0 mm 1 mps 741 mmHg 25%
    13:00 +26°C° 0 mm 1 mps 740 mmHg 24%
    14:00 +27°C° 0 mm 1 mps 740 mmHg 22%
    15:00 +25°C° 0 mm 1 mps 740 mmHg 26%
    16:00 +24°C° 0 mm 1 mps 739 mmHg 29%
    17:00 +22°C° 0 mm 1 mps 739 mmHg 33%
    18:00 +21°C° 0 mm 1 mps 739 mmHg 35%
    19:00 +20°C° 0 mm 1 mps 740 mmHg 36%
    20:00 +18°C° 0 mm 1 mps 740 mmHg 38%
    21:00 +18°C° 0 mm 1 mps 740 mmHg 39%
    22:00 +16°C° 0 mm 1 mps 740 mmHg 40%
    23:00 +16°C° 0 mm 2 mps 741 mmHg 41%
    Show more